Weather History for Townsville Amo, Queensland

Change the Weather History Date:

Sunday, October 13, 2013

  Actual Average Record
Temperature  
Mean Temperature 77 °F -  
Max Temperature 86 °F 86 °F - ()
Min Temperature 68 °F 71 °F - ()
Cooling Degree Days 12    
Growing Degree Days 27 (Base 50)    
Moisture  
Dew Point 67 °F    
Average Humidity 68    
Maximum Humidity 83    
Minimum Humidity 49    
Precipitation  
Precipitation 0.00 in 0.05 in - ()
Sea Level Pressure  
Sea Level Pressure 29.93 in    
Wind  
Wind Speed 10 mph ()    
Max Wind Speed 20 mph    
Max Gust Speed -    
Visibility 7.2 miles    
Events      
T = Trace of Precipitation, MM = Missing Value Source: Averaged Metar Reports

Daily Weather History Graph

Daily Weather History Graph

Search for Another Location

Airport:

Trip Planner

Search our weather history database for the weather conditions in past years. The results will help you decide how hot, cold, wet, or windy it might be!

Date:

Astronomy

Oct. 13, 2013 Rise Set
Actual Time 5:44 AM AEST 6:13 PM AEST
Civil Twilight 5:22 AM AEST 6:36 PM AEST
Nautical Twilight 4:56 AM AEST 7:01 PM AEST
Astronomical Twilight 4:30 AM AEST 7:28 PM AEST
Moon 12:51 PM AEST (10/13) 1:06 AM AEST (10/13)
Length of Visible Light 13h 13m
Length of Day
12h 28m
Waxing Gibbous, 63% of the Moon is Illuminated
Oct 13
Waxing Gibbous
Oct 19
Full
Oct 27
Last Quarter
Nov 3
New
Nov 10
First Quarter

Hourly Weather History & Observations

Time (AEST) Temp. Heat Index Dew Point Humidity Pressure Visibility Wind Dir Wind Speed Gust Speed Precip Events Conditions
12:00 AM 76 °F - 62 °F 54% 29.97 in - NE 12.7 mph - -  
12:00 AM 77.0 °F - 62.6 °F 61% 29.95 in 6.2 mi NE 12.7 mph - N/A   Scattered Clouds
12:30 AM 75.2 °F - 62.6 °F 65% 29.95 in 6.2 mi NE 10.4 mph - N/A   Unknown
1:00 AM 75 °F - 62 °F 54% 29.97 in - NE 11.5 mph - -  
1:00 AM 75.2 °F - 62.6 °F 65% 29.95 in 6.2 mi NE 11.5 mph - N/A   Scattered Clouds
1:30 AM 75.2 °F - 64.4 °F 69% 29.95 in 6.2 mi NNE 9.2 mph - N/A   Scattered Clouds
2:00 AM 75.2 °F - 62.6 °F 65% 29.92 in 6.2 mi NNE 8.1 mph - N/A   Scattered Clouds
2:30 AM 73.4 °F - 62.6 °F 69% 29.92 in 6.2 mi NNE 6.9 mph - N/A   Scattered Clouds
3:00 AM 72 °F - 63 °F 65% 29.93 in - NNE 8.1 mph - -  
3:00 AM 73.4 °F - 62.6 °F 69% 29.92 in 6.2 mi NNE 8.1 mph - N/A   Unknown
3:30 AM 73.4 °F - 62.6 °F 69% 29.92 in 6.2 mi NNE 6.9 mph - N/A   Unknown
4:00 AM 72 °F - 62 °F 64% 29.94 in - NNE 5.8 mph - -  
4:00 AM 71.6 °F - 62.6 °F 73% 29.92 in 6.2 mi NNE 5.8 mph - N/A   Unknown
4:30 AM 71.6 °F - 62.6 °F 73% 29.92 in 6.2 mi NE 5.8 mph - N/A   Unknown
5:00 AM 71.6 °F - 64.4 °F 78% 29.92 in 6.2 mi NE 1.2 mph - N/A   Unknown
5:30 AM 68.0 °F - 60.8 °F 78% 29.95 in 6.2 mi Calm Calm - N/A   Unknown
6:00 AM 70 °F - 63 °F 72% 29.96 in 16 mi SSW 4.6 mph - -   Haze
6:00 AM 69.8 °F - 62.6 °F 78% 29.95 in 6.2 mi SSW 4.6 mph - N/A   Partly Cloudy
6:30 AM 71.6 °F - 64.4 °F 78% 29.95 in 6.2 mi South 5.8 mph - N/A   Partly Cloudy
7:00 AM 75 °F - 65 °F 62% 29.98 in - South 2.3 mph - -  
7:00 AM 75.2 °F - 64.4 °F 69% 29.95 in 6.2 mi South 2.3 mph - N/A   Partly Cloudy
7:30 AM 77.0 °F - 66.2 °F 69% 29.98 in 6.2 mi NE 8.1 mph - N/A   Scattered Clouds
8:00 AM 80.6 °F 82.7 °F 66.2 °F 61% 29.98 in 6.2 mi NNE 8.1 mph - N/A   Partly Cloudy
8:30 AM 80.6 °F 82.7 °F 66.2 °F 61% 29.98 in 6.2 mi NE 13.8 mph - N/A   Partly Cloudy
9:00 AM 83 °F - 67 °F 50% 29.99 in 19 mi ENE 15.0 mph - -   Haze
9:00 AM 82.4 °F 85.4 °F 68.0 °F 62% 29.98 in 6.2 mi ENE 15.0 mph - N/A   Partly Cloudy
9:30 AM 84.2 °F 86.6 °F 66.2 °F 55% 29.98 in 6.2 mi ENE 16.1 mph - N/A   Partly Cloudy
10:00 AM 83 °F - 67 °F 50% 29.99 in - East 15.0 mph - -  
10:00 AM 82.4 °F 85.4 °F 68.0 °F 62% 29.98 in 6.2 mi East 15.0 mph - N/A   Partly Cloudy
10:30 AM 84.2 °F 87.3 °F 68.0 °F 58% 29.95 in 6.2 mi ENE 16.1 mph - N/A   Partly Cloudy
11:00 AM 84.2 °F 87.3 °F 68.0 °F 58% 29.95 in 6.2 mi ENE 17.3 mph - N/A   Partly Cloudy
11:30 AM 84.2 °F 87.3 °F 68.0 °F 58% 29.95 in 6.2 mi ENE 16.1 mph - N/A   Scattered Clouds
12:00 PM 84 °F - 68 °F 50% 29.95 in 19 mi ENE 17.3 mph - -   Haze
12:00 PM 84.2 °F 87.3 °F 68.0 °F 58% 29.95 in 6.2 mi ENE 17.3 mph - N/A   Scattered Clouds
12:30 PM 82.4 °F 85.4 °F 68.0 °F 62% 29.92 in 6.2 mi ENE 17.3 mph - N/A   Scattered Clouds
1:00 PM 85 °F - 69 °F 49% 29.94 in - ENE 17.3 mph - -  
1:00 PM 86.0 °F 89.4 °F 68.0 °F 55% 29.92 in 6.2 mi ENE 17.3 mph - N/A   Scattered Clouds
1:30 PM 82.4 °F 86.3 °F 69.8 °F 66% 29.89 in 6.2 mi ENE 18.4 mph - N/A   Scattered Clouds
2:00 PM 82.4 °F 85.4 °F 68.0 °F 62% 29.89 in 6.2 mi ENE 17.3 mph - N/A   Partly Cloudy
2:30 PM 82.4 °F 85.4 °F 68.0 °F 62% 29.89 in 6.2 mi ENE 17.3 mph - N/A   Scattered Clouds
3:00 PM 80.6 °F 83.9 °F 69.8 °F 70% 29.86 in 6.2 mi ENE 18.4 mph - N/A   Scattered Clouds
3:30 PM 80.6 °F 83.9 °F 69.8 °F 70% 29.86 in 6.2 mi ENE 19.6 mph - N/A   Scattered Clouds
4:00 PM 81 °F - 70 °F 62% 29.88 in - ENE 18.4 mph - -  
4:00 PM 80.6 °F 83.9 °F 69.8 °F 70% 29.86 in 6.2 mi ENE 18.4 mph - N/A   Scattered Clouds
4:30 PM 78.8 °F - 69.8 °F 74% 29.86 in 6.2 mi ENE 19.6 mph - N/A   Scattered Clouds
5:00 PM 78.8 °F - 69.8 °F 74% 29.86 in 6.2 mi ENE 16.1 mph - N/A   Scattered Clouds
5:30 PM 78.8 °F - 71.6 °F 78% 29.89 in 6.2 mi ENE 15.0 mph - N/A   Scattered Clouds
6:00 PM 78 °F - 71 °F 72% 29.90 in 16 mi ENE 15.0 mph - -   Haze
6:00 PM 78.8 °F - 71.6 °F 78% 29.89 in 6.2 mi ENE 15.0 mph - N/A   Scattered Clouds
6:30 PM 78.8 °F - 71.6 °F 78% 29.89 in 6.2 mi ENE 12.7 mph - N/A   Scattered Clouds
7:00 PM 78 °F - 71 °F 74% 29.93 in - ENE 11.5 mph - -  
7:00 PM 78.8 °F - 71.6 °F 78% 29.92 in 6.2 mi ENE 11.5 mph - N/A   Scattered Clouds
7:30 PM 77.0 °F - 71.6 °F 83% 29.92 in 6.2 mi NE 10.4 mph - N/A   Scattered Clouds
8:00 PM 77.0 °F - 71.6 °F 83% 29.92 in 6.2 mi NE 8.1 mph - N/A   Scattered Clouds
8:30 PM 78.8 °F - 69.8 °F 74% 29.92 in 6.2 mi NE 8.1 mph - N/A   Partly Cloudy
9:00 PM 76 °F - 70 °F 76% 29.95 in 12 mi NNE 6.9 mph - -   Haze
9:00 PM 77.0 °F - 69.8 °F 78% 29.95 in 6.2 mi NNE 6.9 mph - N/A   Partly Cloudy
9:30 PM 77.0 °F - 69.8 °F 78% 29.95 in 6.2 mi NNE 6.9 mph - N/A   Partly Cloudy
10:00 PM 75 °F - 69 °F 78% 29.96 in - NE 5.8 mph - -  
10:00 PM 75.2 °F - 69.8 °F 83% 29.95 in 6.2 mi NE 5.8 mph - N/A   Partly Cloudy
10:30 PM 77.0 °F - 69.8 °F 78% 29.95 in 6.2 mi NNE 5.8 mph - N/A   Partly Cloudy
11:00 PM 77.0 °F - 69.8 °F 78% 29.92 in 6.2 mi North 5.8 mph - N/A   Mostly Cloudy
11:30 PM 77.0 °F - 69.8 °F 78% 29.92 in 6.2 mi NNE 8.1 mph - N/A   Unknown